Terug naar catalogus

THORAD AGENA D DEB

ActiefSSO
NORAD 5698·DEBRIS·🇺🇸 United States

Gelanceerd Apr 8, 1970 vanaf Vandenberg Space Force Base

Loading…

Volgende Passages (komende 24 uur)

TLE

VersSource: Space-Track

Epoch: Sep 14, 2026, 09:00 UTC

1 05698U 70025MD  26257.37506216  .00000201  00000-0  32335-3 0  9996
2 05698  99.3327 101.0466 0009507  39.0663  87.8983 13.60418616602578

Volg THORAD AGENA D DEB in realtime met AllMySat

Download on the App Store